Time,TemperatureF,DewpointF,PressureIn,WindDirection,WindDirectionDegrees,WindSpeedMPH,WindSpeedGustMPH,Humidity,HourlyPrecipIn,Conditions,Clouds,dailyrainin,SolarRadiationWatts/m^2,SoftwareType,DateUTC
2017-01-20 00:03:00,36.5,31.0,30.20,ESE,106,1.0,9.0,81,0.00,,,0.00,0,weatherlink.com 1.10,2017-01-20 05:03:00,
2017-01-20 00:18:00,36.8,31.0,30.18,North,359,2.0,9.0,80,0.00,,,0.00,0,weatherlink.com 1.10,2017-01-20 05:18:00,
2017-01-20 00:33:00,36.6,31.0,30.17,North,354,5.0,9.0,80,0.00,,,0.00,0,weatherlink.com 1.10,2017-01-20 05:33:00,
2017-01-20 00:48:00,36.4,31.0,30.16,NNE,27,4.0,9.0,80,0.00,,,0.00,0,weatherlink.com 1.10,2017-01-20 05:48:00,
2017-01-20 01:03:00,36.2,31.0,30.15,NNE,22,11.0,12.0,81,0.00,,,0.00,0,weatherlink.com 1.10,2017-01-20 06:03:00,
2017-01-20 01:18:00,36.5,31.0,30.15,NNE,15,5.0,8.0,80,0.00,,,0.00,0,weatherlink.com 1.10,2017-01-20 06:18:00,
2017-01-20 01:33:00,36.6,31.0,30.15,NE,36,1.0,10.0,79,0.00,,,0.00,0,weatherlink.com 1.10,2017-01-20 06:33:00,
2017-01-20 01:48:00,36.2,30.0,30.15,NNE,22,10.0,11.0,79,0.00,,,0.00,0,weatherlink.com 1.10,2017-01-20 06:48:00,
2017-01-20 02:03:00,36.4,30.0,30.15,NE,45,6.0,13.0,78,0.00,,,0.00,0,weatherlink.com 1.10,2017-01-20 07:03:00,
2017-01-20 02:18:00,36.3,30.0,30.14,NNE,29,9.0,16.0,77,0.00,,,0.00,0,weatherlink.com 1.10,2017-01-20 07:18:00,
2017-01-20 02:33:00,36.5,30.0,30.15,NE,56,1.0,9.0,77,0.00,,,0.00,0,weatherlink.com 1.10,2017-01-20 07:33:00,
2017-01-20 02:48:00,36.4,30.0,30.15,NE,44,3.0,6.0,77,0.00,,,0.00,0,weatherlink.com 1.10,2017-01-20 07:48:00,
2017-01-20 03:03:00,36.1,30.0,30.16,NNE,13,0.0,3.0,77,0.00,,,0.00,0,weatherlink.com 1.10,2017-01-20 08:03:00,
2017-01-20 03:18:00,35.4,29.0,30.16,NNW,347,0.0,2.0,78,0.00,,,0.00,0,weatherlink.com 1.10,2017-01-20 08:18:00,
2017-01-20 03:33:00,34.6,29.0,30.16,NNW,332,0.0,5.0,80,0.00,,,0.00,0,weatherlink.com 1.10,2017-01-20 08:33:00,
2017-01-20 03:48:00,34.3,29.0,30.16,NW,326,3.0,5.0,82,0.00,,,0.00,0,weatherlink.com 1.10,2017-01-20 08:48:00,
2017-01-20 04:03:00,33.6,29.0,30.17,WNW,298,0.0,7.0,83,0.00,,,0.00,0,weatherlink.com 1.10,2017-01-20 09:03:00,
2017-01-20 04:18:00,33.1,29.0,30.17,NNW,336,1.0,7.0,84,0.00,,,0.00,0,weatherlink.com 1.10,2017-01-20 09:18:00,
2017-01-20 04:33:00,33.2,29.0,30.18,WNW,297,6.0,8.0,85,0.00,,,0.00,0,weatherlink.com 1.10,2017-01-20 09:33:00,
2017-01-20 04:48:00,33.3,29.0,30.17,WNW,293,2.0,7.0,84,0.00,,,0.00,0,weatherlink.com 1.10,2017-01-20 09:48:00,
2017-01-20 05:03:00,33.1,29.0,30.18,WNW,299,0.0,7.0,83,0.00,,,0.00,0,weatherlink.com 1.10,2017-01-20 10:03:00,
2017-01-20 05:18:00,32.8,29.0,30.18,NNW,332,2.0,8.0,84,0.00,,,0.00,0,weatherlink.com 1.10,2017-01-20 10:18:00,
2017-01-20 05:33:00,32.2,28.0,30.18,NNW,330,0.0,7.0,85,0.00,,,0.00,0,weatherlink.com 1.10,2017-01-20 10:33:00,
2017-01-20 05:48:00,32.1,28.0,30.19,North,359,0.0,8.0,85,0.00,,,0.00,0,weatherlink.com 1.10,2017-01-20 10:48:00,
2017-01-20 06:03:00,32.3,29.0,30.18,WNW,285,4.0,6.0,86,0.00,,,0.00,0,weatherlink.com 1.10,2017-01-20 11:03:00,
2017-01-20 06:18:00,32.7,29.0,30.18,NW,324,0.0,6.0,85,0.00,,,0.00,0,weatherlink.com 1.10,2017-01-20 11:18:00,
2017-01-20 06:33:00,32.2,28.0,30.19,NNW,340,4.0,6.0,85,0.00,,,0.00,0,weatherlink.com 1.10,2017-01-20 11:33:00,
2017-01-20 06:48:00,32.3,29.0,30.19,NNW,330,1.0,5.0,86,0.00,,,0.00,0,weatherlink.com 1.10,2017-01-20 11:48:00,
2017-01-20 07:04:00,32.4,29.0,30.20,NNW,332,2.0,5.0,86,0.00,,,0.00,5,weatherlink.com 1.10,2017-01-20 12:04:00,
2017-01-20 07:18:00,32.4,29.0,30.20,North,4,2.0,6.0,86,0.00,,,0.00,11,weatherlink.com 1.10,2017-01-20 12:18:00,
2017-01-20 07:34:00,33.3,29.0,30.20,NNW,339,1.0,7.0,85,0.00,,,0.00,18,weatherlink.com 1.10,2017-01-20 12:34:00,
2017-01-20 07:49:00,33.6,29.0,30.20,North,4,4.0,7.0,84,0.00,,,0.00,28,weatherlink.com 1.10,2017-01-20 12:49:00,
2017-01-20 08:04:00,34.2,29.0,30.20,North,354,2.0,8.0,82,0.00,,,0.00,58,weatherlink.com 1.10,2017-01-20 13:04:00,
2017-01-20 08:19:00,35.1,29.0,30.20,North,359,5.0,7.0,78,0.00,,,0.00,125,weatherlink.com 1.10,2017-01-20 13:19:00,
2017-01-20 08:34:00,35.3,29.0,30.20,NNW,346,3.0,6.0,78,0.00,,,0.00,102,weatherlink.com 1.10,2017-01-20 13:34:00,
2017-01-20 08:49:00,35.7,29.0,30.20,NNE,19,3.0,6.0,76,0.00,,,0.00,158,weatherlink.com 1.10,2017-01-20 13:49:00,
2017-01-20 09:04:00,36.8,30.0,30.20,ENE,68,0.0,4.0,76,0.00,,,0.00,192,weatherlink.com 1.10,2017-01-20 14:04:00,